Probability
0 0 0 0 0 0 0 0 0 0 0 0 0 0 0 0 0 0 0 0 0 0 0 0 0 0 0 0 0 0 0 0 0 0 0 0 0 0
0 0 0 0 0 0 0 0 0 0 0 0 0 0 0 0 0 0 0 0 0 0 0 0 0 0 0 0 0 0 0 0 0 0 0 0 0 0
0 0 0 0 0 0 0 0 0 0 0 0 0 0 0 0 0 0 0 0 0 0 0 0 0 0 0 0 0 0 0 0 0 0 0 0 0 0
0 0 0 0 0 0 0 0 0 0 0 0 0 0 0 0 0 0 0 0 0 0 0 0 0 0 0 0 0 0 0 0 0 0 0 0 0 0
0 0 0 0 0 0 0 0 0 0 0 0 0 0 0 0 0 0 0 0 0 0 0 0 0 0 0 0 0 0 0 0 0 0 0 0 0 0
0 0 0 0 0 0 0 0 0 0 0 0 0 0 0 0 0 0 0 0 0 0 0 0 0 0 0 0 0 0 0 0 0 0 0 0 0 0
0 0 0 0 0 0 0 0 0 0 0 0 0 0 0 0 0 0 0 0 0 0 0 0 0 0 0 0 0 0 0 0 0 0 0 0 0 0
0 0 0 0 0 0 0 0 0 0 0 0 0 0 0 0 0 0 0 0 0 0 0 0 0 0 0 0 0 0 0 0 0 0 0 0 0 0
0 0 0 0 0 0 0 0 0 0 0 0 0 0 0 0 0 0 0 0 0 0 0 0 0 0 0 0 0 0 0 0 0 0 0 0 0 0
0 0 0 0 0 0 0 0 0 0 0 0 0 0 0 0 0 0 0 0 0 0 0 0 0 0 0 0 0 0 0 0 0 0 0 0 0 0
0 0 0 0 0 0 0 0 0 0 0 0 0 0 0 0 0 0 0 0 0 0 0 0 0 0 0 0 0 0 0 0 0 0 0 0 0 0
0 0 0 0 0 0 0 0 0 0 0 0 0 0 0 0 0 0 0 0 0 0 0 0 0 0 0 0 0 0 0 0 0 0 0 0 0 0
0 0 0 0 0 0 0 0 0 0 0 0 0 0 0 0 0 0 0 0 0 0 0 0 0 0 0 0 0 0 0 0 0 0 0 0 0 0
0 0 0 0 0 0 0 0 0 0 0 0 0 0 0 0 0 0 0 0 0 0 0 0 0 0 0 0 0 0 0 0 0 0 0 0 0 0
0 0 0 0 0 0 0 0 0 0 0 0 0 0 0 0 0 0 0 0 0 0 0 0 0 0 0 0 0 0 0 0 0 0 0 0 0 0
0 0 0 0 0 0 0 0 0 0 0 0 0 0 0 0 0 0 0 0 0 0 0 0 0 0 0 0 0 0 0 0 0 0 0 0 0 0
0 0 0 0 0 0 0 0 0 0 0 0 0 0 0 0 0 0 0 0 0 0 0 0 0 0 0 0 0 0 0 0 0 0 0 0 0 0
0 0 0 0 0 0 0 0 0 0 0 0 0 0 0 0 0 0 0 0 0 0 0 0 0 0 0 0 0 0 0 0 0 0 0 0 0 0
0 0 0 0 0 0 0 0 0 0 0 0 0 0 0 0 0 0 0 0 0 0 0 0 0 0 0 0 0 0 0 0 0 0 0 0 0 0
0 0 0 0 0 0 0 0 0 0 0 0 0 0 0 0 0 0 0 0 0 0 0 0 0 0 0 0 0 0 0 0 0 0 0 0 0 0
0 0 0 0 0 0 0 0 0 0 0 0 0 0 0 0 0 0 0 0 0 0 0 0 0 0 0 0 0 0 0 0 0 0 0 0 0 0
0 0 0 0 0 0 0 0 0 0 0 0 0 0 0 0 0 0 0 0 0 0 0 0 0 0 0 0 0 0 0 0 0 0 0 0 0 0
0 0 0 0 0 0 0 0 0 0 0 0 0 0 0 0 0 0 0 0 0 0 0 0 0 0 0 0 0 0 0 0 0 0 0 0 0 0
Height
5762 5760 5758 5756 5753 5750 5747 5743 5741 5737 5734 5729 5724 5719 5714 5709 5703 5698 5692 5686 5680 5673 5666 5659 5652 5645 5637 5630 5623 5615 5607 5599 5591 5583 5575 5567 5560 5553
5754 5752 5750 5747 5744 5741 5738 5735 5731 5728 5725 5721 5715 5710 5705 5700 5694 5689 5683 5677 5670 5663 5656 5648 5641 5633 5626 5618 5610 5602 5593 5585 5576 5567 5559 5551 5543 5535
5745 5743 5741 5738 5735 5732 5729 5726 5722 5719 5715 5711 5706 5701 5696 5691 5685 5679 5673 5667 5660 5652 5645 5637 5630 5622 5614 5606 5597 5589 5580 5570 5561 5552 5543 5535 5526 5518
5736 5734 5732 5729 5727 5724 5721 5717 5713 5709 5706 5702 5697 5692 5687 5682 5676 5670 5664 5657 5650 5642 5634 5626 5618 5610 5602 5593 5584 5575 5566 5556 5546 5537 5527 5519 5510 5501
5727 5725 5723 5720 5718 5715 5712 5708 5704 5700 5696 5692 5688 5683 5677 5672 5666 5660 5654 5647 5639 5631 5624 5616 5607 5598 5590 5581 5571 5562 5552 5542 5532 5522 5512 5503 5493 5484
5718 5716 5714 5711 5709 5706 5703 5699 5695 5691 5687 5683 5679 5674 5668 5662 5657 5651 5644 5637 5629 5621 5613 5605 5596 5587 5577 5568 5559 5549 5539 5528 5518 5507 5497 5487 5478 5469
5708 5707 5704 5702 5699 5696 5693 5690 5686 5682 5678 5673 5669 5664 5658 5652 5647 5640 5634 5627 5619 5610 5602 5593 5585 5576 5566 5556 5546 5536 5526 5515 5504 5494 5483 5473 5464 5455
5699 5697 5695 5692 5690 5687 5684 5680 5676 5672 5668 5664 5659 5654 5648 5642 5636 5629 5622 5616 5609 5602 5592 5583 5573 5564 5554 5543 5533 5523 5513 5502 5491 5480 5470 5460 5450 5442
5690 5688 5686 5683 5680 5677 5674 5671 5667 5662 5658 5654 5649 5643 5638 5632 5626 5619 5611 5603 5596 5588 5580 5572 5562 5552 5541 5531 5521 5511 5500 5490 5479 5468 5458 5448 5439 5430
5680 5678 5676 5673 5671 5668 5664 5661 5657 5653 5648 5644 5639 5633 5627 5621 5614 5607 5600 5593 5584 5575 5567 5560 5550 5540 5530 5519 5509 5499 5488 5478 5468 5457 5447 5438 5429 5420
5670 5669 5667 5664 5661 5658 5655 5652 5647 5643 5638 5633 5628 5623 5616 5610 5603 5596 5588 5581 5574 5565 5555 5547 5538 5529 5520 5508 5497 5487 5477 5467 5457 5447 5437 5428 5420 5412
5661 5659 5657 5655 5651 5648 5645 5641 5638 5633 5628 5623 5618 5612 5606 5599 5592 5584 5577 5569 5561 5554 5544 5535 5525 5516 5509 5499 5486 5476 5466 5456 5446 5437 5428 5420 5412 5405
5651 5649 5647 5644 5642 5638 5635 5632 5628 5623 5618 5614 5608 5602 5595 5589 5581 5574 5566 5558 5549 5541 5532 5522 5513 5504 5494 5486 5477 5465 5456 5446 5437 5428 5420 5412 5404 5398
5641 5640 5637 5635 5632 5629 5625 5622 5618 5613 5609 5604 5598 5592 5585 5578 5571 5563 5555 5547 5538 5529 5520 5510 5501 5492 5483 5475 5466 5456 5446 5437 5429 5421 5413 5405 5398 5391
5632 5630 5628 5625 5622 5619 5616 5612 5608 5603 5599 5594 5588 5582 5575 5568 5561 5553 5545 5537 5528 5519 5509 5500 5491 5482 5473 5464 5456 5447 5440 5431 5422 5414 5407 5399 5392 5386
5622 5620 5618 5615 5612 5609 5606 5602 5598 5594 5589 5583 5578 5571 5565 5558 5551 5543 5535 5527 5518 5509 5499 5490 5481 5473 5464 5455 5447 5438 5430 5423 5416 5408 5400 5393 5386 5380
5612 5611 5608 5606 5603 5600 5596 5592 5588 5584 5579 5573 5567 5561 5555 5548 5540 5533 5525 5516 5508 5499 5490 5481 5473 5464 5456 5448 5440 5431 5423 5416 5409 5402 5395 5388 5382 5376
5603 5601 5599 5597 5594 5591 5587 5583 5579 5574 5569 5563 5557 5551 5544 5537 5530 5522 5514 5506 5498 5489 5481 5473 5465 5457 5448 5440 5433 5426 5418 5411 5404 5397 5390 5384 5379 5373
5594 5592 5590 5587 5584 5581 5577 5573 5569 5564 5558 5553 5547 5540 5534 5527 5519 5512 5504 5496 5488 5480 5472 5465 5457 5450 5442 5435 5427 5420 5413 5406 5399 5393 5386 5381 5375 5370
5584 5582 5580 5577 5574 5571 5567 5563 5558 5553 5548 5542 5536 5530 5523 5516 5509 5501 5494 5486 5478 5471 5464 5456 5449 5443 5436 5429 5422 5415 5408 5401 5395 5389 5384 5378 5373 5368
5575 5573 5570 5568 5564 5561 5557 5553 5548 5543 5538 5532 5525 5519 5512 5505 5498 5491 5484 5477 5470 5462 5456 5449 5442 5435 5429 5422 5416 5409 5403 5397 5391 5386 5381 5376 5371 5367
5566 5564 5561 5558 5555 5551 5547 5543 5538 5533 5527 5521 5515 5508 5502 5495 5488 5481 5474 5468 5461 5454 5447 5441 5435 5429 5423 5417 5411 5405 5399 5393 5387 5382 5377 5373 5369 5365
5556 5554 5551 5548 5545 5541 5537 5532 5528 5522 5516 5511 5504 5498 5491 5485 5478 5472 5465 5459 5452 5446 5440 5434 5429 5423 5418 5412 5407 5401 5395 5390 5384 5379 5375 5370 5366 5363
Wind_Speed
39 39 40 40 41 42 42 42 42 42 42 43 43 44 45 46 46 47 48 49 50 51 53 53 54 55 56 56 57 58 59 60 61 62 62 62 62 62
39 40 40 41 41 41 42 42 43 43 43 43 44 45 45 46 47 48 49 51 52 53 54 54 55 56 56 57 58 60 61 62 63 63 62 62 63 63
40 40 41 41 41 41 42 43 44 44 44 44 44 45 46 47 48 49 51 51 52 53 54 55 56 57 58 59 60 62 63 63 63 63 63 63 64 65
40 40 41 41 41 42 42 43 44 44 45 45 45 46 47 48 49 50 52 52 53 54 55 55 56 58 59 60 62 63 63 63 64 64 65 65 65 64
40 41 41 41 41 42 43 43 44 44 45 45 45 47 48 49 50 51 52 53 54 54 55 56 57 59 60 61 62 63 64 64 65 65 65 65 64 62
41 41 41 41 41 42 42 43 44 44 45 46 46 47 48 49 51 52 52 53 54 55 56 57 58 59 60 62 63 64 64 64 65 66 65 63 62 60
41 41 41 41 41 42 42 43 44 45 46 46 47 48 49 50 51 52 52 54 54 55 56 58 59 60 61 62 63 64 64 65 66 65 63 61 59 57
40 40 40 41 41 42 42 43 44 45 46 46 48 49 50 51 51 52 53 54 54 56 57 58 59 60 61 62 63 64 65 65 64 62 61 59 57 54
40 40 40 41 41 41 42 43 44 45 46 47 48 49 50 51 52 54 55 56 56 57 58 58 60 61 61 61 63 63 63 63 61 60 58 56 54 51
39 39 39 40 41 42 43 44 44 45 46 47 48 49 50 50 52 54 55 56 57 58 59 59 59 59 60 61 62 62 62 61 59 57 55 53 50 47
39 39 40 40 41 42 43 43 44 45 46 47 48 48 49 51 53 55 55 56 57 58 59 59 59 58 60 61 61 61 60 59 57 54 52 50 47 44
38 39 39 40 41 42 43 43 44 45 46 46 46 48 50 52 54 55 55 56 57 58 59 59 59 59 59 59 59 59 58 56 54 51 49 47 44 41
38 38 39 40 41 42 42 43 44 45 45 46 47 48 50 52 53 54 55 56 58 59 59 59 58 59 59 57 57 56 54 51 50 48 45 44 42 39
37 38 39 40 41 41 42 43 43 44 44 45 47 49 50 51 52 53 54 56 57 58 58 57 57 57 56 56 54 52 50 48 47 45 43 42 40 37
37 38 38 39 40 41 42 42 42 43 44 46 47 49 50 51 52 52 54 56 57 57 56 55 56 55 55 54 52 49 47 46 45 43 41 39 37 34
37 37 38 39 39 40 41 41 42 43 45 46 47 48 50 50 51 52 54 55 56 56 55 54 54 53 53 51 49 46 45 43 42 40 39 36 34 31
36 36 37 38 38 39 40 41 42 44 45 46 47 48 49 50 52 52 53 54 55 54 52 52 52 51 49 47 45 44 43 41 39 37 35 33 31 29
35 36 36 37 38 39 40 41 42 43 45 46 47 48 49 51 51 52 53 54 53 51 50 49 50 49 47 45 43 41 40 39 37 35 32 30 28 27
34 35 36 36 37 38 40 41 43 44 45 46 48 49 50 50 51 52 53 53 51 49 48 47 46 44 43 42 41 40 38 37 35 32 30 28 26 25
34 35 36 36 37 39 40 41 43 44 45 47 48 49 49 50 51 52 52 50 48 47 46 45 43 42 41 40 39 38 36 34 32 29 27 26 25 23
34 34 35 36 37 39 40 42 43 44 46 47 48 48 49 50 50 50 49 48 46 45 44 42 40 40 39 37 36 35 34 32 30 27 25 24 23 21
33 34 35 37 38 39 41 42 44 45 46 46 48 49 49 50 49 48 47 45 44 43 41 39 38 37 35 34 34 33 32 30 27 25 24 23 21 19
33 34 35 37 38 40 41 43 44 45 46 47 48 49 49 48 47 46 44 42 41 40 38 36 34 33 32 32 32 31 29 27 25 24 23 21 19 18
Wind_Direction
289 291 293 295 296 297 298 300 301 302 303 305 305 305 306 308 309 310 310 310 311 311 312 312 311 312 312 312 312 313 312 310 309 308 307 305 304 303
289 290 292 293 295 296 298 299 300 301 303 304 304 305 306 307 308 309 310 310 312 312 312 312 312 312 312 313 313 313 313 312 311 310 308 307 306 304
287 289 291 293 295 296 297 298 299 301 302 303 304 304 305 306 307 308 310 310 311 312 312 313 313 313 313 313 314 314 314 313 313 311 310 309 307 306
286 288 291 292 293 295 296 298 299 300 301 302 304 304 305 306 307 309 310 311 311 312 312 313 313 313 314 314 315 315 315 314 314 313 311 310 309 308
286 288 290 291 292 294 296 297 298 299 301 302 303 303 305 306 308 309 310 311 311 311 312 313 313 314 314 315 315 315 315 315 315 314 313 312 311 309
285 287 288 290 292 293 295 296 298 299 300 302 302 303 305 306 307 308 310 311 311 311 312 313 313 314 314 315 315 316 316 316 316 315 315 313 312 311
284 286 288 290 291 293 295 296 297 299 300 301 301 303 304 306 307 309 310 311 311 311 312 313 314 314 314 315 315 316 316 317 317 317 316 315 314 313
283 285 288 290 292 294 295 296 297 298 300 300 301 303 305 306 308 309 310 310 311 312 312 313 314 315 315 315 315 316 317 318 318 318 318 317 316 315
283 286 288 290 292 293 295 296 297 298 299 300 302 304 305 307 309 310 310 310 311 312 313 314 314 315 315 316 316 317 318 319 320 320 320 320 319 318
284 286 287 289 291 293 294 295 297 298 299 301 303 305 306 308 309 310 310 311 312 313 314 314 314 315 316 317 317 318 319 319 320 320 321 322 322 321
284 285 287 289 291 293 294 296 297 298 300 302 304 306 307 308 310 310 311 312 313 313 314 315 315 316 317 318 318 318 319 319 320 321 321 323 323 323
284 285 287 289 291 292 294 296 298 299 301 303 305 306 307 309 310 310 311 313 313 314 315 315 315 316 317 318 318 319 319 320 321 321 322 323 324 325
283 285 287 289 291 292 294 296 298 299 301 304 305 307 308 309 310 311 313 314 315 316 316 316 316 317 319 320 320 320 321 321 322 323 323 324 325 325
283 285 287 289 291 293 295 297 299 301 302 304 306 307 308 309 311 312 313 315 316 317 317 317 318 319 320 321 322 322 322 323 324 324 324 325 325 325
283 286 288 290 292 293 295 298 300 301 303 305 306 307 309 310 311 313 314 315 317 317 318 318 320 320 321 323 323 323 323 324 325 325 325 326 326 326
284 286 288 291 292 294 296 298 300 302 304 305 306 307 309 311 312 313 314 316 317 318 318 319 320 321 322 324 324 324 325 326 326 326 327 328 328 329
284 287 289 291 293 295 297 299 301 303 304 305 306 308 310 311 312 314 315 317 317 318 318 319 321 322 323 325 325 326 326 327 328 329 330 330 331 332
285 288 290 292 294 296 298 300 302 304 305 306 307 309 311 312 313 315 316 317 318 318 318 319 321 322 324 326 327 327 328 329 330 330 331 332 334 335
286 289 291 293 295 297 299 301 303 304 306 307 309 310 311 313 314 315 317 318 318 317 318 319 321 322 323 325 326 328 329 329 330 331 332 334 335 337
287 290 292 294 296 298 300 302 303 305 306 308 310 311 312 313 314 315 317 318 318 318 318 319 320 322 323 325 326 328 329 330 331 332 333 335 336 338
288 290 292 294 297 299 301 303 305 306 307 309 310 311 312 314 315 316 317 317 317 318 318 319 320 321 323 325 327 329 330 331 331 332 333 335 337 338
289 292 294 296 298 299 301 303 305 307 308 309 311 312 313 314 315 316 316 317 317 318 319 319 320 322 324 326 328 330 330 331 332 333 334 335 337 339
290 293 295 297 299 300 302 304 306 308 309 310 311 312 314 315 315 316 317 317 318 318 319 320 321 323 325 327 330 331 332 333 334 335 337 339 342 344